EB1DWF Weather Reports


time (UTC)temp
C
wind
direction
speed
KPH
gust
KPH
rain 1hr
cm
rain 24hr
cm
rain mn
cm
humidity
%
barometer
mb
20260508090903 11 213 4.8 6.4 0.00 0.03 0.03 96 1000.6
20260508090214 11 233 1.6 4.8 0.00 0.03 0.03 97 1000.6
20260508085616 11 221 1.6 3.2 0.00 0.03 0.03 97 1000.5
20260508084713 11 282 0.0 1.6 0.00 0.03 0.03 100 1000.6
20260508083603 11 179 0.0 4.8 0.03 0.03 0.03 100 1000.6
20260508082703 11 229 0.0 3.2 0.03 0.03 0.03 100 1000.9
20260508082015 11 271 0.0 3.2 0.03 0.03 0.03 100 1000.7
20260508081117 11 235 0.0 3.2 0.03 0.03 0.03 100 1000.7
20260508080215 10 257 0.0 6.4 0.03 0.03 0.03 100 1000.6
20260508075616 10 276 0.0 9.7 0.03 0.03 0.03 100 1000.6
20260508074714 10 234 4.8 9.7 0.03 0.03 0.03 100 1000.6
20260508073603 10 232 0.0 6.4 0.00 0.00 0.00 100 1000.4
20260508072703 10 232 1.6 8.0 0.00 0.00 0.00 100 1001.1
20260508072016 10 261 0.0 8.0 0.00 0.00 0.00 100 1001.0
20260508071113 10 236 1.6 6.4 0.00 0.00 0.00 100 1000.8
20260508070215 10 254 3.2 6.4 0.00 0.00 0.00 100 1000.8
20260508065617 10 225 0.0 3.2 0.00 0.00 0.00 100 1000.6
20260508064714 10 221 0.0 6.4 0.00 0.00 0.00 100 1000.6
20260508063604 10 227 191.5 12.9 0.00 0.00 0.00 100 1000.3
20260508062914 10 240 0.0 4.8 0.00 0.00 0.00 100 1000.0
20260508061803 10 293 3.2 6.4 0.00 0.00 0.00 100 999.9
20260508061114 10 270 0.0 6.4 0.00 0.00 0.00 100 999.9
20260508060216 10 225 0.0 6.4 0.00 0.00 0.00 100 999.8
20260508055403 10 228 3.2 6.4 0.00 0.00 0.00 100 999.6
20260508054503 10 286 0.0 9.7 0.00 0.00 0.00 100 999.5
20260508053817 10 211 0.0 6.4 0.00 0.00 0.00 100 999.4
20260508052703 10 236 1.6 6.4 0.00 0.00 0.00 100 999.3
20260508052017 10 257 0.0 3.2 0.00 0.00 0.00 100 999.3
20260508051114 10 225 0.0 11.3 0.00 0.00 0.00 100 999.3
20260508050003 10 202 191.5 12.9 0.00 0.00 0.00 100 999.3
20260508045613 10 188 0.0 12.9 0.00 0.00 0.00 100 999.2
20260508044716 10 243 0.0 6.4 0.00 0.00 0.00 100 999.2
20260508043603 10 0 0.0 0.0 0.00 0.00 0.00 100 999.3
20260508042703 10 225 0.0 1.6 0.00 0.00 0.00 100 999.3
20260508042012 10 0 0.0 0.0 0.00 0.00 0.00 100 999.3
20260508041115 10 0 0.0 0.0 0.00 0.00 0.00 100 999.5
20260508040004 10 148 0.0 6.4 0.00 0.00 0.00 100 999.5
20260508035614 10 174 4.8 6.4 0.00 0.00 0.00 100 999.5
20260508034504 10 209 3.2 4.8 0.00 0.00 0.00 100 999.5
20260508033813 10 234 0.0 12.9 0.00 0.00 0.00 100 999.6
20260508032703 10 266 0.0 3.2 0.00 0.00 0.00 100 999.6
20260508031803 10 219 3.2 3.2 0.00 0.00 0.00 100 999.8
20260508030903 10 234 3.2 3.2 0.00 0.00 0.00 100 999.9
20260508030004 10 199 0.0 1.6 0.00 0.00 0.00 100 999.8
20260508025614 10 0 0.0 0.0 0.00 0.00 0.00 100 1000.0
20260508024717 10 165 0.0 12.9 0.00 0.00 0.00 100 1000.0
20260508023604 10 225 0.0 1.6 0.00 0.00 0.00 100 999.9
20260508022703 10 225 0.0 1.6 0.00 0.00 0.00 100 1000.1
20260508021803 10 225 0.0 3.2 0.00 0.00 0.00 100 1000.3
20260508020903 10 45 0.0 4.8 0.00 0.00 0.00 100 1000.2
20260508020003 10 96 0.0 12.9 0.00 0.00 0.00 100 1000.3
20260508015615 10 156 0.0 12.9 0.00 0.00 0.00 100 1000.3
20260508014712 10 154 0.0 6.4 0.00 0.00 0.00 100 1000.6
20260508013815 10 301 4.8 6.4 0.00 0.00 0.00 100 1000.8
20260508012703 10 184 3.2 4.8 0.00 0.00 0.00 100 1000.9
20260508012014 11 210 1.6 6.4 0.00 0.00 0.00 100 1001.0
20260508011117 11 243 0.0 3.2 0.00 0.00 0.00 100 1001.0
20260508010004 11 231 1.6 3.2 0.00 0.00 0.00 100 1001.2
20260508005403 11 214 1.6 3.2 0.00 0.00 0.00 100 1001.2
20260508004713 11 278 0.0 3.2 0.00 0.00 0.00 100 1001.4
20260508003815 11 247 0.0 11.3 0.00 0.00 0.00 100 1001.5
20260508002913 10 264 3.2 8.0 0.00 0.00 0.00 100 1001.7
20260508001803 10 182 0.0 6.4 0.00 0.00 0.00 100 1001.8
20260508000903 10 195 3.2 6.4 0.00 0.00 0.00 100 1002.0
20260508000215 10 225 0.0 1.6 0.00 0.00 0.00 100 1001.7
20260507235616 10 84 0.0 6.4 0.00 0.00 0.00 100 1001.6
20260507234503 11 169 0.0 6.4 0.00 0.00 0.00 97 1001.6
20260507233604 11 180 0.0 1.6 0.00 0.00 0.00 97 1001.4
20260507232703 11 152 0.0 3.2 0.00 0.00 0.00 97 1001.5
20260507231803 11 225 0.0 6.4 0.00 0.00 0.00 96 1001.6
20260507230903 11 241 0.0 6.4 0.00 0.00 0.00 96 1001.5
20260507230215 11 251 3.2 6.4 0.00 0.00 0.00 96 1001.6
20260507225403 11 200 0.0 4.8 0.00 0.00 0.00 96 1001.6
20260507224714 11 232 3.2 6.4 0.00 0.00 0.00 96 1001.9
20260507223817 11 172 0.0 3.2 0.00 0.00 0.00 96 1001.9
20260507222703 11 112 0.0 8.0 0.00 0.00 0.00 96 1002.0
20260507222016 11 61 4.8 9.7 0.00 0.00 0.00 96 1002.0
20260507221114 11 47 6.4 6.4 0.00 0.00 0.00 96 1002.1
20260507220216 11 7 4.8 6.4 0.00 0.00 0.00 97 1002.1
20260507215612 11 207 3.2 6.4 0.00 0.00 0.00 97 1002.0
20260507214715 11 225 3.2 8.0 0.00 0.00 0.00 96 1002.1
20260507213603 12 133 3.2 8.0 0.00 0.00 0.00 93 1002.0
20260507212915 12 168 3.2 6.4 0.00 0.00 0.00 92 1002.1
20260507212017 12 280 0.0 3.2 0.00 0.00 0.00 92 1002.0
20260507210903 12 225 0.0 1.6 0.00 0.00 0.00 92 1001.9
20260507210003 12 225 0.0 1.6 0.00 0.00 0.00 92 1002.0
20260507205403 12 225 0.0 1.6 0.00 0.00 0.00 93 1001.9
20260507204716 12 225 0.0 3.2 0.00 0.00 0.00 93 1001.9
20260507203603 12 204 0.0 6.4 0.00 0.00 0.00 92 1001.8
20260507202703 12 185 3.2 14.5 0.00 0.00 0.00 90 1001.6
20260507201803 13 195 6.4 9.7 0.00 0.00 0.00 86 1001.5
20260507200903 13 269 0.0 6.4 0.00 0.00 0.00 83 1001.3
20260507200004 14 166 4.8 8.0 0.00 0.00 0.00 78 1001.4
20260507195403 14 177 3.2 8.0 0.00 0.00 0.00 75 1001.3
20260507194716 15 210 3.2 16.1 0.00 0.00 0.00 67 1001.2
20260507193813 16 198 3.2 11.3 0.00 0.00 0.00 59 1000.9
20260507192916 16 222 6.4 17.7 0.00 0.00 0.00 56 1000.8
20260507192013 16 189 8.0 9.7 0.00 0.00 0.00 53 1000.6
20260507190903 17 220 3.2 6.4 0.00 0.00 0.00 50 1000.2
20260507190004 17 233 3.2 6.4 0.00 0.00 0.00 50 1000.0
20260507185404 17 266 0.0 6.4 0.00 0.00 0.00 49 1000.0
20260507184717 17 253 3.2 9.7 0.00 0.00 0.00 50 999.9
20260507183814 17 239 4.8 12.9 0.00 0.00 0.00 50 999.8
20260507182917 18 254 6.4 12.9 0.00 0.00 0.00 49 999.5
20260507182014 19 228 3.2 8.0 0.00 0.00 0.00 46 999.5
20260507181116 20 227 3.2 19.3 0.00 0.00 0.00 42 999.2
20260507180004 23 277 6.4 16.1 0.00 0.00 0.00 29 999.1
20260507175615 23 246 6.4 11.3 0.00 0.00 0.00 28 999.0
20260507174503 25 203 3.2 8.0 0.00 0.00 0.00 25 999.0
20260507173815 24 213 3.2 8.0 0.00 0.00 0.00 26 998.8
20260507172703 24 253 3.2 8.0 0.00 0.00 0.00 32 998.7
20260507171803 23 233 4.8 8.0 0.00 0.00 0.00 33 998.6
20260507170903 23 312 3.2 9.7 0.00 0.00 0.00 33 998.8
20260507170004 23 206 3.2 12.9 0.00 0.00 0.00 34 998.6
20260507165403 22 202 4.8 12.9 0.00 0.00 0.00 34 998.6
20260507164503 22 214 6.4 9.7 0.00 0.00 0.00 34 998.6
20260507163815 21 219 6.4 11.3 0.00 0.00 0.00 39 998.7
20260507162703 20 254 4.8 12.9 0.00 0.00 0.00 45 998.9
20260507162015 20 217 3.2 12.9 0.00 0.00 0.00 45 998.8
20260507160903 20 196 6.4 14.5 0.00 0.00 0.00 45 998.9
20260507160215 20 222 4.8 14.5 0.00 0.00 0.00 49 998.8
20260507155403 20 219 6.4 12.9 0.00 0.00 0.00 48 998.9
20260507154503 20 217 3.2 17.7 0.00 0.00 0.00 48 999.0
20260507153603 21 269 8.0 14.5 0.00 0.00 0.00 45 999.1
20260507152913 21 259 4.8 12.9 0.00 0.00 0.00 43 999.2
20260507152016 21 191 3.2 8.0 0.00 0.00 0.00 47 999.3
20260507151113 18 206 3.2 6.4 0.00 0.00 0.00 50 999.5
20260507150003 20 239 3.2 6.4 0.00 0.00 0.00 41 999.7
20260507145617 20 234 3.2 6.4 0.00 0.00 0.00 39 999.6
20260507144714 18 227 0.0 8.0 0.00 0.00 0.00 38 999.8
20260507143603 17 228 4.8 17.7 0.00 0.00 0.00 38 1000.1
20260507142914 17 179 6.4 20.9 0.00 0.00 0.00 39 1000.1
20260507142016 17 203 9.7 20.9 0.00 0.00 0.00 40 1000.1
20260507141114 18 217 3.2 17.7 0.00 0.00 0.00 41 1000.2
20260507140004 20 208 3.2 6.4 0.00 0.00 0.00 38 999.8
20260507135612 20 209 4.8 8.0 0.00 0.00 0.00 37 999.7
20260507134503 21 272 1.6 14.5 0.00 0.00 0.00 32 999.5
20260507133817 22 285 3.2 14.5 0.00 0.00 0.00 33 999.4
20260507132703 22 274 11.3 17.7 0.00 0.00 0.00 33 999.4
20260507132017 22 275 6.4 12.9 0.00 0.00 0.00 34 999.4
20260507130903 20 295 3.2 9.7 0.00 0.00 0.00 37 999.4
20260507130004 21 250 3.2 9.7 0.00 0.00 0.00 33 999.4
20260507125613 22 307 6.4 9.7 0.00 0.00 0.00 29 999.5
20260507124716 21 264 0.0 6.4 0.00 0.00 0.00 31 999.3
20260507123603 21 324 3.2 17.7 0.00 0.00 0.00 32 999.3
20260507122915 21 291 11.3 22.5 0.00 0.00 0.00 30 999.6
20260507121803 22 190 6.4 12.9 0.00 0.00 0.00 30 999.7
20260507121115 21 181 0.0 12.9 0.00 0.00 0.00 31 999.8
20260507120217 21 229 8.0 19.3 0.00 0.00 0.00 30 1000.0
20260507115614 21 252 6.4 19.3 0.00 0.00 0.00 29 1000.0
20260507114504 23 139 4.8 8.0 0.00 0.00 0.00 31 1000.0
20260507113813 22 267 4.8 12.9 0.00 0.00 0.00 31 1000.2
20260507112916 23 212 4.8 8.0 0.00 0.00 0.00 34 1000.3
20260507112013 21 173 0.0 12.9 0.00 0.00 0.00 34 1000.4
20260507111116 23 249 1.6 6.4 0.00 0.00 0.00 33 1000.4
20260507110003 22 245 3.2 8.0 0.00 0.00 0.00 34 1000.6
20260507105403 22 202 3.2 6.4 0.00 0.00 0.00 36 1000.5
20260507104717 22 205 3.2 8.0 0.00 0.00 0.00 35 1000.6
20260507103603 22 224 3.2 6.4 0.00 0.00 0.00 38 1000.7
20260507102703 21 234 0.0 8.0 0.00 0.00 0.00 39 1000.9
20260507102014 22 273 1.6 9.7 0.00 0.00 0.00 39 1000.9
20260507101116 20 234 3.2 6.4 0.00 0.00 0.00 44 1001.0
20260507100004 18 204 3.2 6.4 0.00 0.00 0.00 49 1001.1
20260507095615 18 209 4.8 6.4 0.00 0.00 0.00 49 1001.1
20260507094503 18 215 4.8 6.4 0.00 0.00 0.00 50 1001.3
20260507093603 19 240 3.2 6.4 0.00 0.00 0.00 51 1001.5
20260507092703 17 238 3.2 6.4 0.00 0.00 0.00 54 1001.5
20260507092014 17 250 3.2 6.4 0.00 0.00 0.00 58 1001.6